Regional Weather Roundup
Issued by NWS

Home | Current Version | Previous Version | Text Only | Print | Product List | Glossary Off
Versions: 1 2 3 4 5 6 7 8 9 10 11 12 13 14 15 16 17 18 19 20 21 22 23 24 25 26 27 28 29 30 31 32 33 34 35 36 37 38 39 40 41 42 43 44 45 46 47 48 49 50

000
ASUS43 KDTX 311010
RWRMI
MICHIGAN HOURLY REGIONAL WEATHER ROUNDUP
NATIONAL WEATHER SERVICE DETROIT/PONTIAC MI
600 AM EDT THU JUL 31 2014

NOTE: "FAIR" INDICATES FEW OR NO CLOUDS BELOW 12,000 FEET WITH NO
SIGNIFICANT WEATHER AND/OR OBSTRUCTION TO VISIBILITY.

MIZ047>049-052>055-059>063-066>070-074>076-081>083-311100-
SOUTHEAST LOWER MICHIGAN

CITY           SKY/WX    TMP DP  RH WIND       PRES   REMARKS
ADRIAN         CLEAR     51  49  92 CALM      30.04R FOG
ALMA           CLOUDY    52  50  93 CALM      30.00R
ANN ARBOR      CLEAR     48  44  86 W5        30.02R FOG
BAD AXE        MOCLDY    49  49 100 CALM      29.97S FOG
CARO           MOCLDY    55  55 100 S3        29.98R
DETROIT CITY   CLEAR     59  52  77 W5        30.00R
DETROIT        CLOUDY    55  51  86 SW5       30.01S
FLINT          CLEAR     53  48  83 SW5       30.00R
GROSSE ILE     CLEAR     57  54  88 W5        30.00R
HILLSDALE      CLEAR     49  49 100 CALM      30.03S
HOWELL         CLEAR     50  49  95 CALM      30.01R

CITY           SKY/WX    TMP DP  RH WIND       PRES   REMARKS
JACKSON        CLEAR     50  48  93 CALM      30.03R
LAMBERTVILLE   CLEAR     55  52  88 CALM      30.03R
LANSING        MOCLDY    53  49  86 CALM      30.01S
LAPEER         FAIR      54  51  90 W3        30.00R
MASON          MOCLDY    49  48  95 CALM      30.01S
MONROE         CLEAR     54  52  94 W6        30.01R
MT. CLEMENS    CLEAR     56  53  89 W5        29.98R
PONTIAC        PTCLDY    54  50  86 W5        29.99S
PORT HOPE        N/A     55  53  93 CALM      29.95S
PORT HURON     PTCLDY    55  55 100 CALM      29.99R
TRI CITIES     MOCLDY    56  51  84 W6        30.00R
TROY           CLEAR     57  53  86 W3        30.01R
SAGINAW HB     CLOUDY    57  55  94 SW3       29.98S
$$
MIZ043>046-050>051-056>058-064>065-071>073-077>080-311100-
SOUTHWEST LOWER MICHIGAN

CITY           SKY/WX    TMP DP  RH WIND       PRES   REMARKS
BATTLE CREEK   CLEAR     56  50  80 SW5       30.02S
BENTON HARBOR  CLEAR     52  51  97 CALM      30.01S
BIG RAPIDS     CLEAR     51  51 100 E3        29.97S
COLDWATER      CLEAR     53  52  96 CALM      30.03R
FREMONT        FAIR      51  51 100 CALM      29.99R
HOLLAND        PTCLDY    59  56  89 CALM      30.01S
GRAND RAPIDS   PTCLDY    55  51  86 SW3       30.01S
IONIA          PTSUNNY   55  50  86 SW5       30.00S
KALAMAZOO      CLEAR     54  50  86 SW5       30.03R
LUDINGTON      CLEAR     57  55  95 CALM      29.97S
MARSHALL       PTCLDY    51  50  96 CALM      30.02R
MOUNT PLEASANT MOCLDY    55  51  85 SW3       29.98S
MUSKEGON       MOCLDY    60  58  92 SW10      29.99S FOG
SOUTH HAVEN    PTCLDY    57  56  95 S5        30.01S
$$
MIZ016>042-311100-
NORTHERN LOWER MICHIGAN

CITY           SKY/WX    TMP DP  RH WIND       PRES   REMARKS
ALPENA         MOCLDY    55  53  93 CALM      29.96S
BEAVER ISLAND  MOCLDY    50  50 100 CALM      29.94R FOG
BELLAIRE       PTCLDY    49  48  95 CALM      29.95S
CADILLAC       CLEAR     51  49  93 SW6       29.97S
CHARLEVOIX     PTCLDY    55  54  94 CALM      29.97S
FRANKFORT      CLEAR     52  49  90 CALM      29.96R
GAYLORD        PTCLDY    52  49  89 CALM      29.96S
GRAYLING       PTCLDY    49  49 100 CALM      29.97S
HARBOR SPRINGS PTCLDY    55  52  89 SW3       29.94S
HOUGHTON LAKE  CLOUDY    56  52  86 S5        29.98S
MANISTEE       CLEAR     48  45  87 CALM      29.97S
OSCODA         CLOUDY    56  55  96 W3        29.96S
PELLSTON       PTCLDY    49  48  97 CALM      29.94S
ROGERS CITY    CLOUDY    55  55  98 SW6       29.96R
TRAVERSE CITY  PTCLDY    54  49  83 CALM      29.95R
$$
MIZ007>008-015-311100-
EASTERN UPPER MICHIGAN

CITY           SKY/WX    TMP DP  RH WIND       PRES   REMARKS
KINROSS        CLOUDY    54  54 100 CALM      29.93S
MACKINAC ISLAN MOCLDY    56  55  95 SW5       29.92F
NEWBERRY       PTCLDY    47  47  99 SW5       29.93S FOG
S. S. MARIE    CLOUDY    53  51  93 CALM      29.92S
MUNISING         N/A     50  48  93 S8        29.92S
$$
MIZ004>006-011>014-085-311100-
CENTRAL UPPER MICHIGAN

CITY           SKY/WX    TMP DP  RH WIND       PRES   REMARKS
MANISTIQUE     PTCLDY    49  49 100 CALM      29.93S FOG
ESCANABA       PTCLDY    52  48  87 NW5       29.94R
MENOMINEE      CLEAR     54  52  94 CALM      29.95S
SAWYER-GWINN   PTCLDY    52  50  94 CALM      29.94S
$$
MIZ001>003-009>011-084-311100-
WESTERN UPPER MICHIGAN

CITY           SKY/WX    TMP DP  RH WIND       PRES   REMARKS
IRON MOUNTAIN  CLEAR     50  48  93 CALM      29.95S
HOUGHTON       CLEAR     57  54  89 NW10      29.93R
COPPER HARBOR    N/A     59  55  87 N7        29.91R
IRONWOOD       CLEAR     48  48 100 CALM      29.95
$$

ABBREVIATIONS USED IN REMARKS
   TC - TEMPERATURE IN CELSIUS
  WCI - WIND CHILL INDEX
   HX - HEAT INDEX
  VSB - VISIBILITY



USA.gov is the U.S. government's official web portal to all federal, state and local government web resources and services.